Terminal Aerodrome Forecast
Issued by NWS

Home | Current Version | Previous Version | Text Only | Print | Product List | Glossary On
Versions: 1 2 3 4 5 6 7 8 9 10 11 12 13 14 15
414
FTUS42 KILM 130107 AAA
TAFCRE
TAF AMD
KCRE 130107Z 1301/1324 31006KT P6SM FEW050
     FM130500 33004KT P6SM FEW250
     FM131300 35015G22KT P6SM SKC
     FM132200 35011KT P6SM SKC=

USA.gov is the U.S. government's official web portal to all federal, state and local government web resources and services.